User: anonymous   Login
Location: Prairie State College
(41.5244°N, 87.6382°W)
Time: 08:19:05
(UTC-06:00)
Language:

Cosmos 1943 - Orbit

View from above orbital plane
View from above orbital plane
View from above satellite
View from above satellite

Ground track
Ground track

The orbit data is extracted from the following two-line orbital elements,

1 19119U 88039A   14331.13533104 -.00000072  00000-0 -12552-4 0  3007
2 19119 071.0051 261.0354 0010609 023.9307 069.9377 14.14974046370100
Epoch (UTC): 27 November 2014 03:14:52
Eccentricity: 0.0010609
inclination: 71.0051°
perigee height: 835 km
apogee height: 850 km
right ascension of ascending node: 261.0354°
argument of perigee: 23.9307°
revolutions per day: 14.14974046
mean anomaly at epoch: 69.9377°
orbit number at epoch: 37010

The dashed part of the orbit path shows where the satellite is in the earth's shadow,  

DLR